Regional Weather Roundup
Issued by NWS

Home | Current Version | Previous Version | Text Only | Print | Product List | Glossary Off
Versions: 1 2 3 4 5 6 7 8 9 10 11 12 13 14 15 16 17 18 19 20 21 22 23 24 25 26 27 28 29 30 31 32 33 34 35 36 37 38 39 40 41 42 43 44 45 46 47 48 49 50

000
ASUS43 KIND 190259
RWRIN

WEATHER ROUNDUP FOR INDIANA
NATIONAL WEATHER SERVICE INDIANAPOLIS IN
1000 PM EST WED JAN 18 2017

NOTE: "FAIR" INDICATES FEW OR NO CLOUDS BELOW 12,000 FEET WITH NO
SIGNIFICANT WEATHER AND/OR OBSTRUCTIONS TO VISIBILITY.

* - STATION DOES NOT REPORT WEATHER SUCH AS PRECIPITATION OR FOG.

+ - STATION NOT QUALITY CONTROLLED BY THE NATIONAL WEATHER SERVICE.
    USE DATA WITH CAUTION...ESPECIALLY DEWPOINT AND RELATIVE
    HUMIDITY OBSERVATIONS.

INZ001>003-010>013-019-020-190400-
NORTHWEST INDIANA

CITY           SKY/WX    TMP DP  RH WIND       PRES   REMARKS
GARY /AIRPORT/ CLOUDY    37  32  81 SW12G23   30.08F
MONTICELLO +   CLOUDY    36  33  88 SW5       30.11F

$$

LMZ046-743>745-190400-
SOUTHERN LAKE MICHIGAN

STATION/POSITION TIME  TEMP    WIND        PRES    WAVE
                       AIR SEA DIR/SP/G            HT
                 (UTC) (F)     (DEG/KT/KT) (MB)    (FT)
BURNS HARBOR     0240   37     220/ 11/ 16 1019.3F

$$

INZ004-005-014>016-021>024-190400-
NORTH CENTRAL INDIANA

CITY           SKY/WX    TMP DP  RH WIND       PRES   REMARKS
GOSHEN         CLOUDY    35  31  85 SW12      30.09F WCI  27
SOUTH BEND     CLOUDY    35  33  92 SW10      30.08F WCI  27

$$

INZ006>009-017-018-025>027-190400-
NORTHEAST INDIANA

CITY           SKY/WX    TMP DP  RH WIND       PRES   REMARKS
ANGOLA *+      CLOUDY    34  32  93 W7        30.09R WCI  28
FORT WAYNE     CLOUDY    36  34  92 W8        30.11F FOG
KENDALLVILLE + CLOUDY    33  33 100 W9        30.10F FOG     WCI  25

$$

INZ028-029-035-036-043>045-051>053-190400-
WEST CENTRAL INDIANA

CITY           SKY/WX    TMP DP  RH WIND       PRES   REMARKS
CRAWFORDSVL +  CLOUDY    34  34 100 S5        30.12S WCI  30
LAFAYETTE      CLOUDY    36  33  89 SW9       30.13R
TERRE HAUTE    CLOUDY    38  34  85 S5        30.15R

$$

INZ030>032-037>040-046>048-054>057-064-065-190400-
CENTRAL INDIANA

CITY           SKY/WX    TMP DP  RH WIND       PRES   REMARKS
COLUMBUS       CLOUDY    37  37 100 SW5       30.15F
INDIANAPOLIS   CLOUDY    37  34  89 S6        30.12F
-EAGLE CREEK   CLOUDY    37  33  85 SW3       30.12F
KOKOMO +       CLOUDY    36  34  92 W7        30.12F
MT COMFORT *+  CLOUDY    36  34  93 CALM      30.12F
SHELBYVILLE    CLOUDY    38  34  85 SW6       30.12F

$$

INZ033-034-041-042-049-050-058-059-190400-
EAST CENTRAL INDIANA

CITY           SKY/WX    TMP DP  RH WIND       PRES   REMARKS
MUNCIE         CLOUDY    37  35  92 SW6       30.11F

$$

INZ060-061-067>069-081>083-085>088-190400-
SOUTHWEST INDIANA

CITY           SKY/WX    TMP DP  RH WIND       PRES   REMARKS
EVANSVILLE     CLOUDY    40  36  86 NE5       30.13F
HUNTINGBURG *+ CLOUDY    37  36  93 E5        30.14S

$$

INZ062-063-066-070>080-084-089>092-190400-
SOUTH CENTRAL AND SOUTHEAST INDIANA

CITY           SKY/WX    TMP DP  RH WIND       PRES   REMARKS
BLOOMINGTON    CLOUDY    38  33  82 S5        30.12F
MADISON *+     CLOUDY    39  36  87 S3        30.16F
SEYMOUR +      CLOUDY    41  36  81 SW3       30.14F

$$





USA.gov is the U.S. government's official web portal to all federal, state and local government web resources and services.